Regional Weather Roundup
Issued by NWS

Home | Current Version | Previous Version | Graphics & Text | Print | Product List | Glossary On
Versions: 1 2 3 4 5 6 7 8 9 10 11 12 13 14 15 16 17 18 19 20 21 22 23 24 25 26 27 28 29 30 31 32 33 34 35 36 37 38 39 40 41 42 43 44 45 46 47 48 49 50
000
ASUS43 KMPX 311410
RWRMN
WEATHER ROUNDUP FOR MINNESOTA
NATIONAL WEATHER SERVICE TWIN CITIES/CHANHASSEN MN
800 AM CST SAT JAN 31 2015


NOTE: "FAIR" INDICATES FEW OR NO CLOUDS BELOW 12,000 FEET WITH NO
SIGNIFICANT WEATHER AND/OR OBSTRUCTIONS TO VISIBILITY. N/A MEANS
CURRENT SKY AND/OR WEATHER CONDITIONS ARE NOT AVAILABLE.

MNZ060>063-068>070-311500-
   Twin Cities Metro

CITY           SKY/WX    TMP DP  RH WIND       PRES   REMARKS
TWIN CITIES    CLOUDY    23  20  88 CALM      30.17R
ST PAUL        CLOUDY    25  22  88 CALM      30.19R
CRYSTAL        CLOUDY    25  21  85 N5        30.16R WCI  19
BLAINE         CLOUDY    28  27  93 N6        30.17R WCI  22
LAKEVILLE      PTCLDY    21  21 100 CALM      30.15S FOG
EDEN PRAIRIE   CLOUDY    22  19  89 N5        30.15S WCI  16
SOUTH ST PAUL  CLOUDY    24  22  91 N3        30.17R
LAKE ELMO      CLOUDY    28  25  86 CALM      30.18R
$$
MNZ001>005-007-008-013>017-022>024-027-028-311500-
   Northwest Minnesota

CITY           SKY/WX    TMP DP  RH WIND       PRES   REMARKS
BEMIDJI        PTCLDY     8  -3  63 N7        30.26R WCI  -4
HALLOCK        PTCLDY     0  -8  71 N17       30.43R WCI -21
ROSEAU         MOCLDY     0  -6  78 N12       30.36R WCI -18
WARROAD        MOCLDY    -2  -8  78 NW9       30.35R WCI -18
THIEF RVR FALL PTCLDY     3  -2  78 N12       30.35R WCI -13
CROOKSTON      CLEAR      5   0  78 N13G22    30.38R WCI -12
FOSSTON        PTCLDY     3   0  85 N10G16    30.30S WCI -12
DETROIT LAKES  CLOUDY    16  12  86 N6G18     30.25S WCI   7
MOORHEAD       PTCLDY    10   7  85 N20       30.31S WCI  -8
PARK RAPIDS    CLOUDY    18  14  84 N14       30.22R WCI   4
MAHNOMEN       FAIR       7   0  71 N16       30.28R WCI -11
$$
MNZ006-009>011-018-025>026-311500-
   North Central Minnesota

CITY           SKY/WX    TMP DP  RH WIND       PRES   REMARKS
BAUDETTE       MOCLDY    -1  -7  75 N13       30.31R WCI -19
FLAG ISLAND    MOCLDY    -4  -8  84 N13       30.34R WCI -23
INTL FALLS     CLOUDY     6   1  80 NW10      30.26R WCI  -9
WASKISH        PTCLDY     1  -4  78 CALM      30.30R
BIG FORK       LGT SNOW  12   7  79 NW6       30.23R WCI   3
LONGVILLE      FLURRIES  16  12  86 NW6       30.22R WCI   7
GRAND RAPIDS   CLOUDY    16   9  73 N9        30.19R WCI   4
CRANE LAKE     FLURRIES   9   3  78 N5        30.26R WCI   0
ORR            LGT SNOW  10   3  72 CALM      30.20R
COOK           MOCLDY    10   5  79 NW8       30.21R WCI  -1
WALKER         PTSUNNY   14   8  79 NW7       30.23R WCI   4
$$
MNZ012-019>021-037-311500-
   Northeast Minnesota

CITY           SKY/WX    TMP DP  RH WIND       PRES   REMARKS
DULUTH         CLOUDY    19  12  74 N12       30.15R WCI   7
ELY            LGT SNOW  10   7  85 NW8       30.18R WCI  -1
HIBBING        FLURRIES  16   8  71 NW14      30.19R WCI   2
EVELETH        LGT SNOW  16  10  79 NW10G21   30.19R WCI   3
DULUTH HARBOR  CLOUDY    23  16  74 NW7       30.22R WCI  15
TWO HARBORS    FLURRIES  21  14  73 NW5       30.16R WCI  15
SILVER BAY     FLURRIES  18  10  73 NW7       30.16R WCI   8
GRAND MARAIS     N/A     15   8  73 NW8       30.19R WCI   4
G MARAIS ARPRT LGT SNOW   9   1  72 NW10G21   30.09R WCI  -6
$$
MNZ029>031-032-039>041-046>048-054>057-064-311500-
   West Central Minnesota

CITY           SKY/WX    TMP DP  RH WIND       PRES   REMARKS
FERGUS FALLS   CLOUDY    18  10  73 N10G18    30.27R WCI   6
WHEATON        CLOUDY    16  14  93 N14       30.27R WCI   1
MORRIS         CLOUDY    19  18  93 N15       30.20S WCI   5
ALEXANDRIA     CLOUDY    22  18  85 N13       30.18S WCI  10
ELBOW LAKE     CLOUDY    19  16  90 N9G16     30.21R WCI   8
WADENA         CLOUDY    19  16  86 N8        30.20R WCI   9
GLENWOOD       CLOUDY    21  21 100 N10       30.18R WCI  10
APPLETON       CLOUDY    21  19  93 N15       30.21R WCI   8
BENSON         CLOUDY    21  19  93 NE14G20   30.20R WCI   8
ORTONVILLE     CLOUDY    18  16  93 N18       30.22R WCI   2
MADISON        CLOUDY    25  21  86 N13       30.21S FOG     WCI  13
WILLMAR        CLOUDY    25  21  86 N9        30.19S WCI  15
$$
MNZ033>034-036-042>043-049>051-058-059-311500-
   Central Minnesota

CITY           SKY/WX    TMP DP  RH WIND       PRES   REMARKS
ST CLOUD       CLOUDY    25  20  81 N10       30.18R WCI  15
SAUK CENTRE    CLOUDY    23  20  90 N14G21    30.18R WCI  10
PAYNESVILLE    CLOUDY    21  20  96 N9        30.19R WCI  11
AITKIN         CLOUDY    25  18  74 NW5       30.18R WCI  19
PINE RIVER     CLOUDY    18  14  86 N12       30.23S WCI   5
BRAINERD       CLOUDY    20  16  84 N9        30.19S WCI   9
STAPLES        CLOUDY    19  18  93 N9        30.19S WCI   9
LONG PRAIRIE   CLOUDY    23  19  86 N12G18    30.18R WCI  12
LITTLE FALLS   CLOUDY    25  19  80 N3        30.20R
LITCHFIELD     CLOUDY    27  25  93 N9        30.17R WCI  17
BUFFALO        CLOUDY    25  23  91 N7        30.18R WCI  18
MAPLE LAKE     CLOUDY    26  25  94 N8        30.18R WCI  18
$$
MNZ037-044-045-052-053-311500-
   East Central Minnesota

CITY           SKY/WX    TMP DP  RH WIND       PRES   REMARKS
PRINCETON      CLOUDY    27  21  80 N12       30.18R WCI  16
MORA           CLOUDY    27  19  74 N7        30.19R WCI  19
CAMBRIDGE      CLOUDY    28  19  69 N8        30.16S WCI  20
RUSH CITY      CLOUDY    25  20  80 N12       30.18S WCI  15
MOOSE LAKE     CLOUDY    23  18  80 N6        30.17S WCI  16
HINCKLEY       CLOUDY    27  21  80 N8        30.18S WCI  18
CLOQUET        CLOUDY    19  16  86 NW10      30.17R WCI   8
MCGREGOR       CLOUDY    23  18  80 N8        30.19R WCI  14
$$
MNZ071>073-080-081-089-090-097-098-311500-
   Southwest Minnesota

CITY           SKY/WX    TMP DP  RH WIND       PRES   REMARKS
MONTEVIDEO     CLOUDY    23  21  93 NE14      30.20S WCI  11
GRANITE FALLS  CLOUDY    24  22  93 N9        30.21R FOG     WCI  14
CANBY          CLOUDY    22  20  94 N12G18    30.21R FOG     WCI  10
MARSHALL       CLOUDY    21  19  93 N14       30.19R WCI   8
REDWOOD FALLS  CLOUDY    25  22  88 N7        30.18R WCI  17
OLIVIA         CLOUDY    23  23 100 N8        30.16S FOG     WCI  14
PIPESTONE      FOG       23  23 100 NE13      30.13R VSB 1/2 WCI  11
WINDOM         CLOUDY    23  21  93 N10       30.15R FOG     WCI  12
WORTHINGTON    CLOUDY    23  19  86 N13G18    30.14R WCI  11
JACKSON        CLOUDY    27  23  86 N6        30.14R WCI  20
TRACY          CLOUDY    25  24  96 N14       30.17R FOG     WCI  13
SLAYTON        CLOUDY    23  23  97 N9        30.15R FOG     WCI  13
$$
MNZ065>067-074>077-082>085-091>093-311500-
   South Central Minnesota

CITY           SKY/WX    TMP DP  RH WIND       PRES   REMARKS
MANKATO        CLOUDY    25  21  86 N10       30.15R VSB 1/2 WCI  15
NEW ULM        PTCLDY    21  19  93 N3        30.16R
ST JAMES       MOCLDY    21  21 100 NW7       30.17R WCI  13
FAIRMONT       PTCLDY    25  19  80 NW8       30.13R WCI  16
GLENCOE        CLEAR     22  21  97 N3        30.15S FOG
FARIBAULT      CLOUDY    23  21  93 CALM      30.15R FOG
OWATONNA       CLOUDY    23  21  93 CALM      30.14R
WASECA         MOCLDY    19  18  93 CALM      30.16R FOG
ALBERT LEA     PTCLDY    23  23 100 CALM      30.12S FOG
$$
MNZ078>079-086>088-094>096-311500-
   Southeast Minnesota

CITY           SKY/WX    TMP DP  RH WIND       PRES   REMARKS
ROCHESTER      CLOUDY    23  20  88 W6        30.13R WCI  16
RED WING       CLOUDY    25  21  86 CALM      30.16R
STANTON        CLOUDY    26  23  89 CALM      30.14S
DODGE CENTER   CLOUDY    21  21 100 W3        30.13R
WINONA         CLOUDY    25  19  80 CALM      30.18S
AUSTIN         PTCLDY    18  16  93 CALM      30.13R
PRESTON        CLOUDY    21  19  89 CALM      30.14S
$$
ABBREVIATIONS USED IN REMARKS
   TC - TEMPERATURES IN CELSIUS
  WCI - WIND CHILL INDEX
   HX - HEAT INDEX
  VSB - VISIBILITY
$$


USA.gov is the U.S. government's official web portal to all federal, state and local government web resources and services.